Home > Weather > Bitterfeld-Wolfen > Past weeks

Flag for Germany Weather for the Past 2 Weeks in Bitterfeld-Wolfen, Saxony-Anhalt, Germany

Now
50 °F

Clear.


Feels Like: 49 °F
Forecast: 44 / 64 °F
Wind: 3 mph from Southeast

Location: Leipzig-Schkeuditz

Current Time: May 3, 2016 at 12:12:15 AM

Latest Report: May 2, 2016 at 11:20 PM


Visibility: 10 mi

Pressure: 30.12 "Hg

Humidity: 67%

Dew Point: 39 °F

Location of Bitterfeld-WolfenLocation

Historic Weather in Bitterfeld-Wolfen — Graph

°F

Bitterfeld-Wolfen Temperature Yesterday

Maximum temperature yesterday: 64 °F (at 3:20 PM)
Minimum temperature yesterday: 41 °F (at 4:20 AM)
Average temperature yesterday: 54 °F

High & Low Weather Summary for the Past Weeks

 TemperatureHumidityPressure
High66 °F (Apr 30, 2:20 PM)100% (Apr 25, 3:20 AM)30.42 "Hg (Apr 25, 3:20 AM)
Low28 °F (Apr 25, 2:20 AM)32% (Apr 30, 1:50 PM)29.47 "Hg (Apr 26, 3:20 AM)
Average46 °F67%29.99 "Hg
* Reported Apr 17 10:20 PM — May 2 10:20 PM, Bitterfeld-Wolfen, Weather by CustomWeather, © 2016

Note: Actual official high and low records may vary slightly from our data, if they occured in-between our weather recording intervals... More about our weather records

Advertising

Bitterfeld-Wolfen Weather History for the Previous 24 Hours

Scroll right to see more
 ConditionsComfort  
Time TempWeatherWind HumidityBarometerVisibility
10:20 PM
Mon, May 2
50 °FClear.7 mph71%30.12 "Hg10 mi
9:50 PM52 °FClear.5 mph67%30.12 "Hg10 mi
9:20 PM54 °FPassing clouds.5 mph67%30.12 "HgN/A
8:50 PM55 °FSunny.6 mph63%30.12 "Hg10 mi
8:20 PM55 °FSunny.6 mph63%30.12 "Hg10 mi
7:50 PM59 °FSunny.8 mph55%30.12 "Hg10 mi
7:20 PM61 °FSunny.9 mph48%30.12 "Hg10 mi
6:50 PM63 °FSunny.12 mph45%30.12 "Hg10 mi
6:20 PM63 °FPassing clouds.10 mph49%30.12 "HgN/A
5:50 PM64 °FPassing clouds.9 mph40%30.15 "HgN/A
5:20 PM64 °FPassing clouds.10 mph46%30.15 "HgN/A
4:50 PM64 °FPassing clouds.9 mph43%30.15 "HgN/A
4:20 PM64 °FPassing clouds.10 mph40%30.15 "HgN/A
3:50 PM64 °FPassing clouds.13 mph43%30.18 "HgN/A
3:20 PM64 °FPassing clouds.13 mph40%30.18 "HgN/A
2:50 PM63 °FPassing clouds.8 mph45%30.18 "HgN/A
2:20 PM63 °FSunny.10 mph42%30.18 "Hg10 mi
1:50 PM63 °FPassing clouds.8 mph42%30.21 "HgN/A
1:20 PM63 °FPassing clouds.7 mph49%30.21 "HgN/A
12:50 PM63 °FPassing clouds.9 mph52%30.21 "HgN/A
12:20 PM59 °FPassing clouds.7 mph55%30.24 "HgN/A
11:50 AM59 °FPassing clouds.5 mph51%30.24 "HgN/A
11:20 AM57 °FPassing clouds.6 mph59%30.24 "HgN/A
10:50 AM55 °FPassing clouds.6 mph63%30.24 "HgN/A
10:20 AM54 °FPassing clouds.5 mph67%30.27 "HgN/A
9:50 AM52 °FPassing clouds.5 mph67%30.27 "HgN/A
9:20 AM50 °FPassing clouds.3 mph71%30.27 "HgN/A
8:50 AM48 °FPassing clouds.3 mph71%30.27 "HgN/A
8:20 AM46 °FPassing clouds.5 mph76%30.27 "HgN/A
7:20 AM45 °FSunny.7 mph76%30.27 "Hg10 mi
6:50 AM43 °FSunny.6 mph81%30.27 "Hg10 mi
6:20 AM41 °FClear.6 mph81%30.27 "Hg10 mi
5:20 AM41 °FClear.7 mph87%30.24 "Hg10 mi
4:50 AM43 °FClear.7 mph76%30.24 "Hg10 mi
4:20 AM41 °FClear.8 mph81%30.24 "Hg10 mi
3:50 AM43 °FClear.8 mph76%30.24 "Hg10 mi
3:20 AM43 °FClear.7 mph76%30.24 "Hg10 mi
2:50 AM43 °FClear.6 mph81%30.24 "Hg10 mi
2:20 AM43 °FClear.7 mph76%30.27 "Hg10 mi
1:50 AM46 °FClear.7 mph71%30.24 "Hg10 mi
1:20 AM46 °FClear.8 mph71%30.24 "Hg10 mi
12:50 AM46 °FClear.6 mph71%30.24 "Hg10 mi
12:20 AM48 °FClear.6 mph71%30.24 "Hg10 mi
Weather by CustomWeather, © 2016

See weather overviewHow to use our weather pages